This is the latest recevied weather packets stored in our database for station/object AE5PL. If no packets are shown the sender has not sent any weather packets the latest 10 day(s).
| Time | Temp. | Humidity | Pressure | Rain* | Wind** | Luminosity | Snow |
|---|---|---|---|---|---|---|---|
| 1778168551 | 17.22° C | 66% | 1020.1 hPa | 0.76 mm | - | - | - |
| 1778168251 | 17.22° C | 70% | 1020.1 hPa | 0.76 mm | - | - | - |
| 1778167951 | 16.67° C | 71% | 1020.2 hPa | 0.76 mm | - | - | - |
| 1778167651 | 16.11° C | 70% | 1020.3 hPa | 0.76 mm | - | - | - |
| 1778167351 | 16.11° C | 71% | 1020.3 hPa | 0.76 mm | - | - | - |
| 1778167051 | 16.11° C | 73% | 1020.3 hPa | 0.76 mm | - | - | - |
| 1778166751 | 16.11° C | 71% | 1020.4 hPa | 0.76 mm | - | - | - |
| 1778166451 | 15.56° C | 74% | 1020.3 hPa | 0.76 mm | - | - | - |
| 1778166151 | 15.56° C | 74% | 1020.3 hPa | 0.76 mm | - | - | - |
| 1778165851 | 15.56° C | 73% | 1020.4 hPa | 0.76 mm | - | - | - |
| 1778165551 | 15.56° C | 75% | 1020.4 hPa | 0.76 mm | - | - | - |
| 1778165251 | 15.56° C | 76% | 1020.5 hPa | 0.76 mm | - | - | - |
| 1778164951 | 15.56° C | 75% | 1020.5 hPa | 0.76 mm | - | - | - |
| 1778164651 | 15.56° C | 75% | 1020.5 hPa | 0.76 mm | - | - | - |
| 1778164351 | 15.56° C | 76% | 1020.6 hPa | 0.76 mm | - | - | - |
| 1778164051 | 15° C | 77% | 1020.7 hPa | 0.76 mm | - | - | - |
| 1778163751 | 15° C | 77% | 1020.8 hPa | 0.76 mm | - | - | - |
| 1778163451 | 14.44° C | 77% | 1020.9 hPa | 0.76 mm | - | - | - |
| 1778163151 | 14.44° C | 78% | 1020.9 hPa | 0.76 mm | - | - | - |
| 1778162851 | 14.44° C | 78% | 1021 hPa | 0.76 mm | - | - | - |
| 1778162551 | 14.44° C | 80% | 1020.8 hPa | 0.76 mm | - | - | - |
| 1778162251 | 13.89° C | 82% | 1020.9 hPa | 0.76 mm | - | - | - |
| 1778161951 | 13.33° C | 84% | 1020.8 hPa | 0.76 mm | - | - | - |
| 1778161651 | 13.33° C | 85% | 1020.8 hPa | 0.76 mm | - | - | - |
| 1778161351 | 12.78° C | 85% | 1020.9 hPa | 0.76 mm | - | - | - |
* Rain latest 24 hours (hover to see other rain measurements)
** Current wind speed in m/s (hover to see current wind gust speed)